sat.trackr.live / text

‹ back to catalog

ONEWEB-0083

NORAD 45435 · 2020-020M

PAYLOAD ACTIVE UNKNOWN

§ Identity

Operator
Country
UK
Launch date
2020-03-21
Launch site
TYMSC
Launch vehicle
Mass (kg)
RCS (m²)

Purposes: comms

External: N2YO · Heavens-Above · Gunter

§ Orbital elements

Epoch: 2026-09-11T19:18:46.751328Z

Period
109.80 min
Inclination
87.8975°
Eccentricity
0.0001802
Mean motion
13.11416997 rev/d
Perigee alt
1,216.3 km
Apogee alt
1,219.1 km
Semi-major
7,595.8 km
B*
-1.2240e-3
RAAN
3.8427°
Arg perigee
98.3917°
Mean anomaly
261.7415°
Rev number
31,402

§ Raw data

ONEWEB-00831 45435U 20020M   26254.80470777 -.00000421  00000+0 -12240-2 0  99932 45435  87.8975   3.8427 0001802  98.3917 261.7415 13.11416997314027

JSON: /api/v1/satellites/45435 · /tle

For live sub-satellite position, see the globe view (requires WebGL).

§ Visibility from observer

Set your observer location to see the next 7 days of passes ≥ 10°. The values pass through the URL so the page stays shareable.

No JS? Fill the form by hand. The geolocation button needs JavaScript.